Location: Bacea
(45.9500°N, 22.6667°E)
Time: 06:59:49
(UTC+00:00)

Cosmos 1953 - Pass Details

Date: 04 June 2022
Orbit: 533 x 555 km, 82.5° (Epoch: 03 July)

Event Time Altitude Azimuth Distance (km) Brightness Sun altitude
Rises 21:08:31 0° 0° (N) 2,714 7.2 -19.2°
Reaches altitude 10° 21:10:54 10° 12° (NNE) 1,812 5.8 -19.4°
Maximum altitude 21:14:25 29° 74° (ENE) 997 3.6 -19.5°
Enters shadow 21:15:12 27° 96° (E) 1,048 3.5 -19.6°
